Regional Weather Roundup
Issued by NWS

Home | Current Version | Previous Version | Graphics & Text | Print | Product List | Glossary On
Versions: 1 2 3 4 5 6 7 8 9 10 11 12 13 14 15 16 17 18 19 20 21 22 23 24 25 26 27 28 29 30 31 32 33 34 35 36 37 38 39 40 41 42 43 44 45 46 47 48 49 50
000
ASUS44 KMEG 032200
RWRTN
TENNESSEE HOURLY STATE WEATHER ROUNDUP
NATIONAL WEATHER SERVICE MEMPHIS TN
400 PM CST TUE MAR 03 2015

TNZ002-004-019-021-049-052-054-088>092-032300-
WEST TENNESSEE

CITY           SKY/WX    TMP DP  RH WIND       PRES   REMARKS
MEMPHIS INTL   FOG       58  56  93 S13       29.93F VSB 1/2
NWS MEMPHIS      N/A     58 N/A N/A MISG        N/A
JACKSON        CLOUDY    60  58  92 S8        29.92F FOG
DYERSBURG      CLOUDY    59  46  63 S7        29.89F
UNION CITY     CLOUDY    57  57 100 S12       29.86F
PARIS          CLOUDY    61  55  82 S13       29.90F
LEXINGTON      CLOUDY    57  57 100 S7        29.93F
SAVANNAH       CLOUDY    61  61 100 S8        29.95F
$$

TNZ008-025-027-028-033-062-065-066-032300-
NORTH MIDDLE TENNESSEE

CITY           SKY/WX    TMP DP  RH WIND       PRES   REMARKS
NASHVILLE      CLOUDY    64  58  80 S14       29.94F
CLARKSVILLE    CLOUDY    64  58  80 SW14      29.89F
COOKEVILLE     CLOUDY    61  57  88 SW9       29.98F
CROSSVILLE     CLOUDY    54  53  97 S6        30.01F
$$

TNZ061-075-076-078-094-096-097-032300-
SOUTH MIDDLE TENNESSEE

CITY           SKY/WX    TMP DP  RH WIND       PRES   REMARKS
FAYETTEVILLE   CLOUDY    54  54 100 S7          N/A
TULLAHOMA      CLOUDY    55  55 100 S6        30.02S
WINCHESTER     CLOUDY    55  55 100 S7        30.02F
COLUMBIA       CLOUDY   N/A N/A N/A S7        29.95F
SHELBYVILLE    CLOUDY    63  59  88 S12       29.99F
$$

TNZ017-018-042-046-047-032300-
NORTHEAST TENNESSEE

CITY           SKY/WX    TMP DP  RH WIND       PRES   REMARKS
TRI CITIES     CLOUDY    51  44  77 CALM      30.02F
ELIZABETHTON   CLOUDY    52  43  71 CALM      30.01F
$$

TNZ012-013-036-069-073-074-032300-
CENTRAL EAST TENNESSEE

CITY           SKY/WX    TMP DP  RH WIND       PRES   REMARKS
KNOXVILLE      LGT RAIN  49  46  90 W3        30.03F FOG
OAK RIDGE      LGT RAIN  48  47  96 VRB3      30.05S VSB 1
GATLINBURG     CLOUDY    52  45  76 NW3       30.02F
$$

TNZ083-085-099-032300-
SOUTHEAST TENNESSEE

CITY           SKY/WX    TMP DP  RH WIND       PRES   REMARKS
CHATTANOOGA    CLOUDY    55  53  93 S6        30.06F
$$

SKY/WX REPORTED AS FAIR MEANS FEW OR NO CLOUDS BELOW
12 THOUSAND FEET.




USA.gov is the U.S. government's official web portal to all federal, state and local government web resources and services.